Regional Weather Roundup
Issued by NWS

Home | Current Version | Previous Version | Graphics & Text | Print | Product List | Glossary On
Versions: 1 2 3 4 5 6 7 8 9 10 11 12 13 14 15 16 17 18 19 20 21 22 23 24 25 26 27 28 29 30 31 32 33 34 35 36 37 38 39 40 41 42 43 44 45 46 47 48 49 50
000
ASUS43 KOAX 012210
RWRNE

WEATHER ROUNDUP FOR NEBRASKA
NATIONAL WEATHER SERVICE OMAHA NE
500 PM CDT WED JUL 01 2015

NOTES: SATELLITE DATA IS BEING USED TO AUGMENT CLOUD COVER ABOVE
       12000 FEET.
       "FAIR" INDICATES FEW OR NO CLOUDS BELOW 12,000 FEET WITH NO
       SIGNIFICANT WEATHER AND/OR OBSTRUCTIONS TO VISIBILITY.

  * THESE STATIONS DO NOT REPORT WEATHER SUCH AS RAIN...SNOW OR FOG.

NEZ001>004-019>022-054>056-012300-
NEBRASKA PANHANDLE

CITY           SKY/WX    TMP DP  RH WIND       PRES   REMARKS
SCOTTSBLUFF    MOSUNNY   92  50  23 SW8       29.99F
ALLIANCE       SUNNY     88  55  32 E3        30.01F
CHADRON        SUNNY     88  62  41 NE8       29.98S
KIMBALL          N/A    N/A N/A N/A MISG        N/A
SIDNEY         MOSUNNY   89  53  29 N6        30.04F
$$

NEZ057>060-069>072-079>082-012300-
SOUTHWEST NEBRASKA

CITY           SKY/WX    TMP DP  RH WIND       PRES   REMARKS
NORTH PLATTE   SUNNY     93  54  26 N14G20    29.92F HX  91
IMPERIAL       SUNNY     96  53  23 NE14      29.95F HX  93
LEXINGTON      SUNNY     90  65  44 E6        29.90F HX  91
MCCOOK         SUNNY     96  60  30 N9        29.90F HX  96
OGALLALA       SUNNY     92  52  25 N10       29.96F HX  90
$$

NEZ005>010-023>029-035>040-094-012300-
NORTH CENTRAL NEBRASKA

CITY           SKY/WX    TMP DP  RH WIND       PRES   REMARKS
VALENTINE      SUNNY     86  61  42 NW20G25   29.93F
AINSWORTH      MOSUNNY   87  62  42 N13       29.92S
BROKEN BOW     MOSUNNY   87  70  56 NE6       29.91F HX  92
O`NEILL        MOSUNNY   81  66  61 CALM      29.91F
ORD            SUNNY     84  67  56 SE5       29.88F
THEDFORD       SUNNY     89  61  39 N14       29.95F
$$

NEZ041-046>049-061>064-073>077-083>087-012300-
SOUTH CENTRAL NEBRASKA

CITY           SKY/WX    TMP DP  RH WIND       PRES   REMARKS
GRAND ISLAND   SUNNY     84  68  58 E8        29.89F
AURORA         SUNNY     84  68  59 NE6       29.88S
HASTINGS       SUNNY     84  69  60 VRB5      29.88F
HEBRON         PTSUNNY   86  68  55 NE8       29.84S
HOLDREGE       SUNNY     85  66  53 NE6       29.90F
KEARNEY *      SUNNY     82  70  65 NE8       29.90F
YORK           MOSUNNY   84  70  61 NE8       29.87S
$$

NEZ011>018-030>034-042>045-012300-
NORTHEAST NEBRASKA

CITY           SKY/WX    TMP DP  RH WIND       PRES   REMARKS
NORFOLK        PTSUNNY   80  67  64 E9        29.89S
ALBION         CLOUDY    82  66  58 CALM      29.89S
BLAIR          PTSUNNY   82  66  60 NE10      29.87F
COLUMBUS *     PTSUNNY  N/A N/A N/A MISG        N/A
FREMONT        MOSUNNY   85  66  53 E9        29.86F
TEKAMAH        SUNNY     83  66  56 NE12      29.87F
WAYNE          CLOUDY    76  68  74 E8        29.91S
$$

NEZ050>053-065>068-078-088>093-012300-
SOUTHEAST NEBRASKA

CITY           SKY/WX    TMP DP  RH WIND       PRES   REMARKS
LINCOLN        PTSUNNY   86  69  56 E5        29.84S HX  90
OMAHA EPPLEY   MOSUNNY   84  68  58 E12       29.86S
BEATRICE       MOSUNNY   84  70  63 E9        29.84S
FALLS CITY     MOSUNNY   85  73  67 E8        29.82S HX  91
NEBRASKA CITY  MOSUNNY   85  65  51 E7        29.84S
PLATTSMOUTH    MOSUNNY   82  69  64 E9        29.85S
$$

NEZ044-045-051>053-067-012300-
OMAHA AREA

CITY           SKY/WX    TMP DP  RH WIND       PRES   REMARKS
OMAHA EPPLEY   MOSUNNY   84  68  58 E12       29.86S
BLAIR          PTSUNNY   82  66  60 NE10      29.87F
FREMONT        MOSUNNY   85  66  53 E9        29.86F
MILLARD        PTSUNNY   83  70  65 E8        29.85S
OFFUTT AFB     MOSUNNY   83  68  60 NE10      29.87S
PLATTSMOUTH    MOSUNNY   82  69  64 E9        29.85S
WAHOO          FAIR      86  68  55 E8        29.85S
$$


USA.gov is the U.S. government's official web portal to all federal, state and local government web resources and services.